THOR ABLESTAR DEB, 351

Orbit data source: Space-Track

THOR ABLESTAR DEB, 351 is space debris in LEO originally from a launch on Thu, 29 Jun 1961 UTC launched from the Air Force Eastern Test Range (AFETR). Debris objects in space refer to the collection of defunct objects orbiting the Earth. Examples of debris include non-operational satellites, rocket bodies, and fragments generated from explosions, collisions, or faulty payload assembly.

Loading next visibility...
THOR ABLESTAR DEB details
Identifier
351, 1961-015DR
Orbit
LEO
Last TLE update1 day ago
Origin
Flag of USUSAF SSD (US)
ManufacturerUnknown
MissionSpacecraft
Bus & MotorUnknown
MassUnknown
Launch date (UTC)
1961-06-29 (64 years ago)
Launch vehicleUnknown
Launch site
Air Force Eastern Test Range (AFETR)
Object type
Payload
Rocket body
Debris
Shape & HBRUnknown
Radar Cross SectionSmall (<0.1 m²)

Expand to show TLE details & history

TLE from 1 day ago
0 THOR ABLESTAR DEB
1 00351U 61015DR  25044.37896283  .00015734  00000-0  23865-2 0  9999
2 00351  66.7455  30.0757 0029639 332.3261  27.6280 14.73931989305372
Epoch: 2025-02-13T09:05Z
Definitive object data (Epoch: 2025-02-13T09:05:42.388Z)
Latitude-0.00009°
Longitude109.99312°
Altitude632.256 km
Speed7.553 km/s
True Right ascension02h 00m 18s
True Declination0° 00' 00"
Sunlit
Object was in daylight at TLE epoch
Visualization TLE readout
Latitude-47.73334°
Longitude78.35959°
Altitude647.127 km
Speed7.544 km/s
Apparent Right ascension03h 14m 55s
Apparent Declination-55° 43' 41"
Sunlit
Object is in daylight
Visualization observer readout
Local Sidereal Time18:26:58
Azimuth133.13° SE
Elevation-55.004°
Doppler factor1
Orbital elements
Apogee altitude667.701 km
Perigee altitude626.058 km
Semi-major axis7,025.017 km
Eccentricity0.0029639
Inclination66.7455°
RAAN30.0757°
Arg. of periapsis332.3261°
True anomaly27.78602°
Mean anomaly27.628°
Eccentric anomaly27.70696°
Mean motion3.68614 °/min
BSTAR0.0023865
Orbital period97.66 mins
Loading maneuver chart data...

THOR ABLESTAR DEB Visibility forecast

Observer location: undefined°, undefined

Span
Click to sort rows by Start time (UTC) header in descending order
Start Az.
Max El. time (UTC)
Max El. Az.
Max El.
End time (UTC)
End Az.
8 mins2025-02-15 00:18:46.786Z205.416° SW2025-02-15 00:22:46.786Z69.707° E44.752°2025-02-15 00:26:46.786Z30.317° NE
7 mins2025-02-15 08:51:46.786Z350.707° N2025-02-15 08:54:46.786Z43.601° NE33.079°2025-02-15 08:58:46.786Z122.194° SE
5 mins2025-02-15 10:32:46.786Z289.553° WNW2025-02-15 10:34:46.786Z258.916° W20.045°2025-02-15 10:37:46.786Z211.441° SW
|